Cleveland, OH

9:11 PM EDT on May 26, 2017 (GMT -0400)
Cleveland-Hopkins International

Weather History for KCLE - April, 2014

Change the Weather History Date:

Saturday, April 19, 2014

  Actual Average Record
Temperature  
Mean Temperature 45 °F 51 °F  
Max Temperature 52 °F 61 °F 84 °F (1958)
Min Temperature 38 °F 42 °F 22 °F (1887)
Degree Days  
Heating Degree Days 20 14  
Month to date heating degree days 293 333  
Since 1 July heating degree days 5983 5376  
Cooling Degree Days 0 0  
Month to date cooling degree days 6 0  
Year to date cooling degree days 6 1  
Moisture  
Dew Point 33 °F    
Average Humidity 62    
Maximum Humidity 85    
Minimum Humidity 38    
Precipitation  
Precipitation 0.00 in 0.12 in 1.92 in (2017)
Month to date precipitation 3.52 2.30  
Year to date precipitation 10.75 10.29  
Snow  
Snow 0.00 in 0.10 in - ()
Month to date snowfall 1.3 3.0  
Since 1 July snowfall 86.1 67.8  
Snow Depth 0.00 in    
Sea Level Pressure  
Sea Level Pressure 30.40 in    
Wind  
Wind Speed 11 mph (NNE)    
Max Wind Speed 21 mph    
Max Gust Speed 24 mph    
Visibility 10 miles    
Events      
T = Trace of Precipitation, MM = Missing Value Source: NWS Daily Summary

Daily Weather History Graph

Daily Weather History Graph

Search for Another Location

Airport or City:

Trip Planner

Search our weather history database for the weather conditions in past years. The results will help you decide how hot, cold, wet, or windy it might be!

Date:

Astronomy

Apr. 19, 2014 Rise Set
Actual Time 6:41 AM EDT 8:12 PM EDT
Civil Twilight 6:12 AM EDT 8:41 PM EDT
Nautical Twilight 5:37 AM EDT 9:16 PM EDT
Astronomical Twilight 5:00 AM EDT 9:53 PM EDT
Moon No Moon Rise 9:57 AM EDT (4/19)
Length of Visible Light 14h 28m
Length of Day
13h 30m
Waning Gibbous, 79% of the Moon is Illuminated
Apr 19
Waning Gibbous
Apr 22
Last Quarter
Apr 29
New
May 6
First Quarter
May 14
Full

Hourly Weather History & Observations

Time (EDT) Temp. Windchill Dew Point Humidity Pressure Visibility Wind Dir Wind Speed Gust Speed Precip Events Conditions
12:51 AM 48.0 °F - 39.9 °F 74% 30.33 in 9.0 mi NNE 8.1 mph - N/A   Clear
1:51 AM 46.0 °F 39.9 °F 39.0 °F 76% 30.34 in 9.0 mi North 13.8 mph - N/A   Clear
2:51 AM 39.9 °F 32.9 °F 34.0 °F 79% 30.36 in 9.0 mi NNE 11.5 mph - N/A   Partly Cloudy
3:51 AM 39.9 °F 32.9 °F 35.1 °F 83% 30.37 in 8.0 mi NNE 11.5 mph - N/A   Partly Cloudy
4:51 AM 39.2 °F 32.0 °F 33.8 °F 81% 30.37 in 9.0 mi NNE 11.5 mph - N/A   Clear
5:51 AM 37.9 °F 30.9 °F 32.0 °F 79% 30.39 in 10.0 mi NNE 10.4 mph - N/A   Clear
6:51 AM 37.9 °F 31.5 °F 32.0 °F 79% 30.41 in 10.0 mi NE 9.2 mph - N/A   Clear
7:51 AM 39.2 °F 33.6 °F 33.8 °F 81% 30.43 in 10.0 mi NNE 8.1 mph - N/A   Clear
8:51 AM 42.1 °F 34.9 °F 33.1 °F 70% 30.46 in 10.0 mi NNE 13.8 mph - N/A   Clear
9:51 AM 44.1 °F 38.1 °F 33.1 °F 65% 30.47 in 10.0 mi NE 11.5 mph - N/A   Clear
10:51 AM 46.0 °F 42.5 °F 33.1 °F 61% 30.47 in 10.0 mi North 6.9 mph - N/A   Clear
11:51 AM 48.9 °F - 34.0 °F 56% 30.45 in 10.0 mi North 8.1 mph - N/A   Clear
12:51 PM 48.9 °F - 34.0 °F 56% 30.45 in 10.0 mi North 12.7 mph - N/A   Clear
1:51 PM 50.0 °F - 32.0 °F 50% 30.43 in 10.0 mi NNE 13.8 mph - N/A   Clear
2:51 PM 50.0 °F - 30.9 °F 48% 30.43 in 10.0 mi North 17.3 mph - N/A   Clear
3:51 PM 51.1 °F - 26.1 °F 38% 30.43 in 10.0 mi NNE 17.3 mph - N/A   Clear
4:51 PM 51.1 °F - 28.0 °F 41% 30.40 in 10.0 mi NNE 16.1 mph - N/A   Clear
5:51 PM 51.1 °F - 30.0 °F 44% 30.39 in 10.0 mi NNE 19.6 mph - N/A   Clear
6:51 PM 50.0 °F - 30.0 °F 46% 30.38 in 10.0 mi NNE 17.3 mph - N/A   Clear
7:51 PM 46.0 °F 39.6 °F 28.0 °F 50% 30.37 in 10.0 mi NE 15.0 mph - N/A   Clear
8:51 PM 45.0 °F 41.2 °F 32.0 °F 60% 30.37 in 10.0 mi NE 6.9 mph - N/A   Clear
9:51 PM 44.1 °F 42.5 °F 34.0 °F 68% 30.38 in 10.0 mi North 3.5 mph - N/A   Clear
10:51 PM 44.1 °F 42.5 °F 34.0 °F 68% 30.36 in 10.0 mi NNE 3.5 mph - N/A   Clear
11:51 PM 44.1 °F 41.5 °F 30.0 °F 58% 30.35 in 10.0 mi ENE 4.6 mph - N/A   Clear